Location: 22
(39.7117°N, 89.5929°W)
Time: 05:46:21
(UTC-05:00)

Vanguard 1 Rocket - Pass Details

Date: 12 February 2023
Orbit: 652 x 4223 km, 34.3° (Epoch: 26 March)

Event Time Altitude Azimuth Distance (km) Brightness Sun altitude
Rises 10:26:51 0° 243° (WSW) 3,461 10.4 31.3°
Reaches altitude 10° 10:28:55 10° 239° (WSW) 2,738 10.0 31.5°
Maximum altitude 10:35:18 55° 162° (SSE) 1,664 10.2 32.1°
Drops below altitude 10° 10:47:26 10° 90° (E) 5,040 11.6 33.1°
Sets 10:52:44 0° 87° (E) 6,648 12.0 33.5°
